Tracking 31027 objects as of 19-Jul-2025
HD Live streaming from Space Station
objects crossing your sky now

STARLINK-2185

Track STARLINK-2185 now!
10-day predictions
STARLINK-2185 is classified as:


NORAD ID: 47767
Int'l Code: 2021-017AX
Perigee: 553.5 km
Apogee: 555.2 km
Inclination: 53.1 °
Period: 95.6 minutes
Semi major axis: 6925 km
RCS: Unknown
Launch date: March 4, 2021
Source: United States (US)
Launch site: AIR FORCE EASTERN TEST RANGE (AFETR)
Your satellite tracking list
COSMOS 1743
Track 1 satellite(s)




NASA's NSSDC Master Catalog

Two Line Element Set (TLE):
1 47767U 21017AX  25199.42619002  .00001070  00000-0  90727-4 0  9999
2 47767  53.0537 183.2684 0001290  83.2342 276.8794 15.06401610242478
Source of the keplerian elements: AFSPC